COSMOS 397 DEB, 5277

Orbit data source: Space-Track

COSMOS 397 DEB, 5277 is space debris in LEO originally from a launch on Thu, 25 Feb 1971 UTC launched from the Tyuratam Missile And Space Complex (TTMTR). Debris objects in space refer to the collection of defunct objects orbiting the Earth. Examples of debris include non-operational satellites, rocket bodies, and fragments generated from explosions, collisions, or faulty payload assembly.

Loading next visibility...
Identifier
5277, 1971-015BE
Orbit
LEO
Country
Flag of CISCIS
Related business
Manufacturer
Unknown
Mission
Spacecraft
Bus & Motor
Unknown
Mass
Unknown
Launch date (UTC)
1971-02-25 (55 years ago)
Launch vehicle
Unknown
Launch site
Tyuratam Missile And Space Complex (TTMTR)
Object type
Payload
Rocket body
Debris
Shape & HBR
Unknown shape, 0.1 m
Radar Cross Section
Small (<0.1 m²)

Expand to show TLE details & history
Last TLE update: 2 days ago

TLE from 2 days ago
0 COSMOS 397 DEB
1 05277U 71015BE  25348.61853343  .00001184  00000-0  54181-3 0  9996
2 05277  65.7342 311.5610 0907715  17.6292 345.4160 13.00944949237922
Epoch: 2025-12-14T14:50Z
TLE epoch observation values (Epoch: 2025-12-14T14:50:41.288Z)
Latitude
-0.00004°
Longitude
5.36009°
Altitude
593.969 km
Speed
7.886 km/s
True Right ascension
20h 46m 14s
True Declination
0° 00' 00"
Sunlit
Object was in daylight at epoch
Visualization orbit readout
Latitude
Unknown
Longitude
Unknown
Altitude
Unknown
Speed
Unknown
Apparent Right ascension
Unknown
Apparent Declination
Unknown
Sunlit
N/A
Visualization observer readout
Local Sidereal Time
03:07:58
Azimuth
Unknown
Elevation
Unknown
Doppler factor
Unknown
Orbital elements
Apogee altitude
1,950.003 km
Perigee altitude
563.906 km
Semi-major axis
7,635.092 km
Eccentricity
0.09077
Inclination
65.7342°
RAAN
311.561°
Arg. of periapsis
17.6292°
True anomaly
342.47694°
Mean anomaly
345.416°
Eccentric anomaly
343.98078°
Mean motion
3.25328 °/min
Orbital period
110.66 mins
BSTAR
0.00054181
Loading maneuver chart data...
Computing Atmospheric mass density...

Documentation

Showing up to 5 results
|